#timestamp,LO_Frequency,Hit,StdDev 
1512565215.5,286046991.4,N
1512565235.3,286046989.0,N
1512565255.2,286046985.8,Y
1512565275.9,286046990.6,P
1512565295.7,286046988.6,P
1512565315.5,286046988.5,P
1512565335.4,286046990.0,Y
1512565355.2,286046997.0,P
1512565375.0,286046998.5,N
1512565376.0,286046998.5,N
1512565395.8,286047001.8,N
1512565415.6,286047002.4,N
1512565435.4,286047000.5,N
1512565455.3,286047000.7,N
1512565475.1,286046996.9,N
1512565495.8,286047002.4,N
1512565515.7,286047002.5,N
1512565535.5,286046995.3,N
1512565555.3,286046997.5,N
1512565575.2,286046998.2,N
1512565595.9,286046999.0,N
1512565615.7,286046996.2,N
1512565635.6,286046995.5,N
1512565655.4,286046995.6,N
1512565675.2,286046994.2,N
1512565695.0,286046996.6,N
1512565696.0,286046996.6,N
1512565715.8,286047001.1,N
1512565735.6,286046999.8,N
1512565755.4,286046997.5,N
1512565775.3,286046997.3,N
1512565795.1,286046996.8,N
1512565815.8,286046997.1,N
1512565835.7,286046996.7,N
1512565855.5,286046994.0,N
1512565875.3,286046992.0,N
1512565895.2,286046991.7,N
1512565915.9,286046995.3,N
1512565935.7,286046996.9,N
1512565955.6,286046995.8,N
1512565975.4,286046996.2,N
1512565995.2,286046996.5,N
1512566015.0,286046997.0,N
1512566016.0,286046997.0,N
1512566035.8,286047001.9,N
1512566055.6,286047001.1,N
1512566075.4,286046995.7,N
1512566095.3,286046994.0,N
1512566115.1,286046991.9,Y
1512566135.9,286046996.3,P
1512566155.7,286046993.5,P
1512566175.5,286046993.9,P
1512566195.4,286046994.1,Y
1512566215.2,286046996.7,P
1512566235.0,286046998.0,N
1512566235.9,286046998.0,N
1512566255.7,286046999.6,N
1512566275.6,286046996.0,N
1512566295.4,286046997.0,N
1512566315.2,286046996.6,N
1512566335.1,286046999.0,N
1512566336.0,286046999.0,N
1512566355.8,286046998.4,N
1512566375.6,286046995.9,Y
1512566395.5,286046997.8,P
1512566415.3,286046998.0,P
1512566435.1,286046995.8,P
1512566455.9,286046995.1,Y
1512566475.7,286046999.2,P
1512566495.5,286046999.7,N
1512566515.4,286047001.6,N
1512566535.2,286046998.2,N
1512566555.0,286046998.6,N
1512566555.9,286046998.6,N
1512566575.8,286047003.0,N
1512566595.6,286047006.2,Y
1512566615.4,286047009.2,P
1512566635.3,286047010.5,N
1512566655.1,286047011.0,N
1512566656.0,286047011.0,N
1512566675.8,286047007.8,N
1512566695.7,286047006.6,N
1512566715.5,286047004.5,N
1512566735.3,286047005.0,N
1512566755.2,286047007.8,N
1512566775.9,286047010.3,Y
1512566795.7,286047002.7,P
1512566815.6,286047000.1,N
1512566835.4,286047001.5,N
1512566855.2,286047000.9,N
1512566875.0,286047000.8,N
1512566876.0,286047000.8,N
1512566895.8,286047002.1,N
1512566915.6,286047003.1,N
1512566935.4,286047001.3,N
1512566955.3,286047000.5,N
1512566975.1,286047001.2,N
1512566995.8,286046995.0,N
1512567015.7,286046997.8,N
1512567035.5,286046995.9,N
1512567055.3,286046992.2,N
1512567075.2,286046997.9,N
1512567095.9,286046998.7,N
1512567115.7,286046995.1,N
1512567135.6,286046993.5,N
1512567155.4,286046997.4,N
1512567175.2,286046996.0,N
1512567195.0,286046995.0,N
1512567196.0,286046995.0,N
1512567215.8,286046994.9,N
1512567235.6,286046998.0,N
1512567255.4,286046997.9,N
1512567275.3,286046998.0,N
1512567295.1,286046995.9,N
1512567315.8,286046995.6,N
1512567335.7,286046991.8,N
1512567355.5,286046990.2,Y
1512567375.3,286046994.2,P
1512567395.2,286046994.0,P
1512567415.9,286046993.3,P
1512567435.7,286046995.7,N
1512567455.6,286046993.8,Y
1512567475.4,286047002.5,P
1512567495.2,286047001.8,N
1512567515.1,286047004.4,N
1512567516.0,286047004.4,N
1512567535.8,286047004.4,N
1512567555.6,286047004.3,N
1512567575.5,286047000.2,N
1512567595.3,286047000.7,N
1512567615.1,286046998.6,N
1512567635.9,286047001.1,N
1512567655.7,286046999.8,N
1512567675.5,286047000.0,N
1512567695.3,286047004.3,N
1512567715.2,286047000.9,N
1512567735.0,286047002.6,N
1512567735.9,286047002.6,N
1512567755.7,286047002.6,N
1512567775.6,286047000.3,N
1512567795.4,286046998.4,N
1512567815.2,286047000.6,N
1512567835.1,286047002.7,N
1512567836.0,286047002.7,N
1512567855.8,286047001.8,N
1512567875.6,286046999.7,N
1512567895.5,286046998.2,N
1512567915.3,286046999.5,N
1512567935.1,286046998.4,N
1512567955.8,286047000.7,N
1512567975.7,286047000.7,N
1512567995.5,286047001.5,N
1512568015.3,286046998.9,N
1512568035.2,286046996.9,N
1512568055.0,286046996.5,N
1512568055.9,286046996.5,N
1512568075.7,286046998.9,N
1512568095.6,286046997.4,N
1512568115.4,286047001.2,N
1512568135.2,286047002.8,N
1512568155.1,286047002.5,N
1512568156.0,286047002.5,N
1512568175.8,286047002.7,N
1512568195.6,286047000.7,N
1512568215.5,286046998.2,N
1512568235.3,286047001.3,N
1512568255.1,286047000.9,N
1512568275.9,286046998.6,N
1512568295.7,286047001.0,N
1512568315.5,286047002.8,N
1512568335.3,286047000.2,N
1512568355.2,286046998.7,N
1512568375.0,286046998.6,N
1512568375.9,286046998.6,N
1512568395.7,286046996.5,N
1512568415.6,286046999.0,N
1512568435.4,286046998.5,N
1512568455.2,286047001.6,N
1512568475.1,286047000.3,N
1512568476.0,286047000.3,N
1512568495.8,286047001.7,N
1512568515.6,286047004.3,N
1512568535.5,286046999.7,N
1512568555.3,286046998.3,N
1512568575.1,286046997.8,N
1512568595.9,286046998.2,N
1512568615.7,286047000.0,N
1512568635.5,286047002.0,N
1512568655.4,286046999.9,N
1512568675.2,286046999.8,N
1512568695.0,286047000.1,N
1512568695.9,286047000.1,N
1512568715.8,286046998.4,N
1512568735.6,286046997.6,N
1512568755.4,286046997.5,N
1512568775.2,286046998.6,N
1512568795.1,286046998.7,N
1512568796.0,286046998.7,N
